Time,TemperatureF,DewpointF,PressureIn,WindDirection,WindDirectionDegrees,WindSpeedMPH,WindSpeedGustMPH,Humidity,HourlyPrecipIn,Conditions,Clouds,dailyrainin,SolarRadiationWatts/m^2,SoftwareType,DateUTC
2013-05-21 00:00:00,76.5,67.2,29.44,SE,135,10.0,19.0,73,0.00,,---,0.00,0.00,VWS V14.00,2013-05-21 05:00:00,
2013-05-21 00:10:00,76.3,67.0,29.44,SE,135,9.0,20.0,73,0.00,,---,0.00,0.00,VWS V14.00,2013-05-21 05:10:00,
2013-05-21 00:20:00,76.1,67.2,29.44,SE,135,8.0,20.0,74,0.00,,---,0.00,0.00,VWS V14.00,2013-05-21 05:20:00,
2013-05-21 00:30:00,76.0,67.1,29.45,SE,135,10.0,19.0,74,0.00,,---,0.00,0.00,VWS V14.00,2013-05-21 05:30:00,
2013-05-21 00:40:00,75.7,66.8,29.44,SE,135,10.0,20.0,74,0.00,,---,0.00,0.00,VWS V14.00,2013-05-21 05:40:00,
2013-05-21 00:50:00,75.5,67.0,29.44,SE,135,11.0,25.0,75,0.00,,---,0.00,0.00,VWS V14.00,2013-05-21 05:50:00,
2013-05-21 01:00:00,75.3,66.8,29.44,SE,135,11.0,23.0,75,0.00,,---,0.00,0.00,VWS V14.00,2013-05-21 06:00:00,
2013-05-21 01:10:00,74.9,66.8,29.44,SE,135,9.0,18.0,76,0.00,,---,0.00,0.00,VWS V14.00,2013-05-21 06:10:00,
2013-05-21 01:20:00,74.7,66.6,29.45,SE,135,8.0,19.0,76,0.00,,---,0.00,0.00,VWS V14.00,2013-05-21 06:20:00,
2013-05-21 01:30:00,74.4,66.7,29.44,SE,135,10.0,18.0,77,0.00,,---,0.00,0.00,VWS V14.00,2013-05-21 06:30:00,
2013-05-21 01:40:00,74.1,66.8,29.43,SE,135,8.0,17.0,78,0.00,,---,0.00,0.00,VWS V14.00,2013-05-21 06:40:00,
2013-05-21 01:50:00,73.8,66.9,29.42,SE,135,9.0,19.0,79,0.00,,---,0.00,0.00,VWS V14.00,2013-05-21 06:50:00,
2013-05-21 02:00:00,73.5,67.0,29.41,SE,135,8.0,18.0,80,0.00,,---,0.00,0.00,VWS V14.00,2013-05-21 07:00:00,
2013-05-21 02:10:00,73.2,67.0,29.42,SE,135,8.0,20.0,81,0.00,,---,0.00,0.00,VWS V14.00,2013-05-21 07:10:00,
2013-05-21 02:20:00,72.9,66.7,29.41,SE,135,7.0,14.0,81,0.00,,---,0.00,0.00,VWS V14.00,2013-05-21 07:20:00,
2013-05-21 02:30:00,72.6,66.8,29.41,SE,135,7.0,14.0,82,0.00,,---,0.00,0.00,VWS V14.00,2013-05-21 07:30:00,
2013-05-21 02:40:00,72.4,66.9,29.40,SE,135,8.0,14.0,83,0.00,,---,0.00,0.00,VWS V14.00,2013-05-21 07:40:00,
2013-05-21 02:50:00,72.1,67.0,29.40,SE,135,8.0,17.0,84,0.00,,---,0.00,0.00,VWS V14.00,2013-05-21 07:50:00,
2013-05-21 03:00:00,71.9,67.2,29.39,ESE,112,7.0,14.0,85,0.00,,---,0.00,0.00,VWS V14.00,2013-05-21 08:00:00,
2013-05-21 03:10:00,71.6,66.9,29.39,SE,135,6.0,14.0,85,0.00,,---,0.00,0.00,VWS V14.00,2013-05-21 08:10:00,
2013-05-21 03:20:00,71.4,67.0,29.38,ESE,112,5.0,11.0,86,0.00,,---,0.00,0.00,VWS V14.00,2013-05-21 08:20:00,
2013-05-21 03:30:00,71.2,66.8,29.38,ESE,112,5.0,9.0,86,0.00,,---,0.00,0.00,VWS V14.00,2013-05-21 08:30:00,
2013-05-21 03:40:00,71.1,66.7,29.38,ESE,112,5.0,12.0,86,0.00,,---,0.00,0.00,VWS V14.00,2013-05-21 08:40:00,
2013-05-21 03:50:00,71.0,66.9,29.38,ESE,112,5.0,12.0,87,0.00,,---,0.00,0.00,VWS V14.00,2013-05-21 08:50:00,
2013-05-21 04:00:00,70.9,66.8,29.38,ESE,112,6.0,13.0,87,0.00,,---,0.00,0.00,VWS V14.00,2013-05-21 09:00:00,
2013-05-21 04:10:00,70.8,66.7,29.37,SE,135,7.0,13.0,87,0.00,,---,0.00,0.00,VWS V14.00,2013-05-21 09:10:00,
2013-05-21 04:20:00,70.6,66.9,29.36,SE,135,7.0,13.0,88,0.00,,---,0.00,0.00,VWS V14.00,2013-05-21 09:20:00,
2013-05-21 04:30:00,70.5,66.8,29.37,ESE,112,7.0,14.0,88,0.00,,---,0.00,0.00,VWS V14.00,2013-05-21 09:30:00,
2013-05-21 04:40:00,70.5,66.8,29.37,ESE,112,7.0,14.0,88,0.00,,---,0.00,0.00,VWS V14.00,2013-05-21 09:40:00,
2013-05-21 04:50:00,70.5,66.8,29.37,ESE,112,6.0,13.0,88,0.00,,---,0.00,0.00,VWS V14.00,2013-05-21 09:50:00,
2013-05-21 05:00:00,70.6,66.9,29.36,SE,135,7.0,13.0,88,0.00,,---,0.00,0.00,VWS V14.00,2013-05-21 10:00:00,
2013-05-21 05:10:00,70.6,66.9,29.36,ESE,112,6.0,16.0,88,0.00,,---,0.00,0.00,VWS V14.00,2013-05-21 10:10:00,
2013-05-21 05:20:00,70.6,66.9,29.36,SE,135,5.0,13.0,88,0.00,,---,0.00,0.00,VWS V14.00,2013-05-21 10:20:00,
2013-05-21 05:30:00,70.6,66.9,29.36,ESE,112,6.0,14.0,88,0.00,,---,0.00,0.00,VWS V14.00,2013-05-21 10:30:00,
2013-05-21 05:40:00,70.6,66.9,29.36,ESE,112,5.0,9.0,88,0.00,,---,0.00,0.00,VWS V14.00,2013-05-21 10:40:00,
2013-05-21 05:50:00,70.7,67.0,29.36,East,90,5.0,12.0,88,0.00,,---,0.00,0.00,VWS V14.00,2013-05-21 10:50:00,
2013-05-21 06:00:00,70.6,66.6,29.36,East,90,5.0,11.0,87,0.00,,---,0.00,0.00,VWS V14.00,2013-05-21 11:00:00,
2013-05-21 06:10:00,70.7,66.7,29.37,East,90,4.0,11.0,87,0.00,,---,0.00,0.00,VWS V14.00,2013-05-21 11:10:00,
2013-05-21 06:20:00,70.9,66.8,29.38,NNE,22,4.0,11.0,87,0.00,,---,0.00,0.00,VWS V14.00,2013-05-21 11:20:00,
2013-05-21 06:30:00,71.0,66.9,29.38,NE,45,4.0,15.0,87,0.00,,---,0.00,0.00,VWS V14.00,2013-05-21 11:30:00,
2013-05-21 06:40:00,70.9,66.8,29.38,ESE,112,6.0,14.0,87,0.00,,---,0.00,0.00,VWS V14.00,2013-05-21 11:40:00,
2013-05-21 06:50:00,70.9,66.8,29.39,ESE,112,7.0,14.0,87,0.00,,---,0.00,8.00,VWS V14.00,2013-05-21 11:50:00,
2013-05-21 07:00:00,70.9,66.8,29.39,SE,135,7.0,15.0,87,0.00,,---,0.00,15.00,VWS V14.00,2013-05-21 12:00:00,
2013-05-21 07:10:00,71.1,67.0,29.41,SE,135,8.0,18.0,87,0.00,,---,0.00,26.00,VWS V14.00,2013-05-21 12:10:00,
2013-05-21 07:20:00,71.3,67.2,29.41,ESE,112,8.0,18.0,87,0.00,,---,0.00,39.00,VWS V14.00,2013-05-21 12:20:00,
2013-05-21 07:30:00,71.5,67.1,29.42,SE,135,6.0,12.0,86,0.00,,---,0.00,49.00,VWS V14.00,2013-05-21 12:30:00,
2013-05-21 07:40:00,71.7,67.3,29.42,SE,135,7.0,14.0,86,0.00,,---,0.00,56.00,VWS V14.00,2013-05-21 12:40:00,
2013-05-21 07:50:00,72.0,67.6,29.42,SE,135,8.0,16.0,86,0.00,,---,0.00,68.00,VWS V14.00,2013-05-21 12:50:00,
2013-05-21 08:00:00,72.2,67.4,29.43,SE,135,7.0,15.0,85,0.00,,---,0.00,70.00,VWS V14.00,2013-05-21 13:00:00,
2013-05-21 08:10:00,72.6,67.8,29.43,SSE,158,6.0,14.0,85,0.00,,---,0.00,70.00,VWS V14.00,2013-05-21 13:10:00,
2013-05-21 08:20:00,72.9,67.8,29.42,SE,135,6.0,12.0,84,0.00,,---,0.00,72.00,VWS V14.00,2013-05-21 13:20:00,
2013-05-21 08:30:00,73.1,68.0,29.42,SE,135,6.0,17.0,84,0.00,,---,0.00,73.00,VWS V14.00,2013-05-21 13:30:00,
2013-05-21 08:40:00,73.4,67.9,29.42,SE,135,7.0,18.0,83,0.00,,---,0.00,78.00,VWS V14.00,2013-05-21 13:40:00,
2013-05-21 08:50:00,73.7,68.2,29.43,SSE,158,7.0,16.0,83,0.00,,---,0.00,92.00,VWS V14.00,2013-05-21 13:50:00,
2013-05-21 09:00:00,73.9,68.1,29.43,SSE,158,7.0,14.0,82,0.00,,---,0.00,94.00,VWS V14.00,2013-05-21 14:00:00,
2013-05-21 09:10:00,74.1,68.3,29.44,SSE,158,7.0,18.0,82,0.00,,---,0.00,78.00,VWS V14.00,2013-05-21 14:10:00,
2013-05-21 09:20:00,74.3,68.4,29.44,SE,135,5.0,11.0,82,0.00,,---,0.00,80.00,VWS V14.00,2013-05-21 14:20:00,
2013-05-21 09:30:00,74.5,68.7,29.44,SE,135,6.0,14.0,82,0.00,,---,0.00,99.00,VWS V14.00,2013-05-21 14:30:00,
2013-05-21 09:40:00,74.7,68.5,29.44,SE,135,7.0,14.0,81,0.00,,---,0.00,85.00,VWS V14.00,2013-05-21 14:40:00,
2013-05-21 09:50:00,74.9,68.7,29.45,SE,135,6.0,10.0,81,0.00,,---,0.00,80.00,VWS V14.00,2013-05-21 14:50:00,
2013-05-21 10:00:00,74.9,68.7,29.45,SE,135,5.0,13.0,81,0.00,,---,0.00,70.00,VWS V14.00,2013-05-21 15:00:00,
2013-05-21 10:10:00,75.0,68.8,29.46,SE,135,5.0,14.0,81,0.00,,---,0.00,70.00,VWS V14.00,2013-05-21 15:10:00,
2013-05-21 10:20:00,75.0,68.4,29.47,SSE,158,5.0,10.0,80,0.00,,---,0.00,63.00,VWS V14.00,2013-05-21 15:20:00,
2013-05-21 10:30:00,75.1,68.5,29.47,SSE,158,4.0,10.0,80,0.00,,---,0.00,68.00,VWS V14.00,2013-05-21 15:30:00,
2013-05-21 10:40:00,75.1,68.5,29.47,SSE,158,5.0,11.0,80,0.00,,---,0.00,89.00,VWS V14.00,2013-05-21 15:40:00,
2013-05-21 10:50:00,75.2,68.6,29.46,SSE,158,6.0,14.0,80,0.00,,---,0.00,120.00,VWS V14.00,2013-05-21 15:50:00,
2013-05-21 11:00:00,75.4,68.8,29.47,SE,135,6.0,14.0,80,0.00,,---,0.00,111.00,VWS V14.00,2013-05-21 16:00:00,
2013-05-21 11:10:00,75.5,68.9,29.47,SSE,158,6.0,14.0,80,0.00,,---,0.00,108.00,VWS V14.00,2013-05-21 16:10:00,
2013-05-21 11:20:00,75.6,68.6,29.48,South,180,5.0,11.0,79,0.00,,---,0.00,103.00,VWS V14.00,2013-05-21 16:20:00,
2013-05-21 11:30:00,75.7,68.7,29.47,South,180,5.0,12.0,79,0.00,,---,0.00,87.00,VWS V14.00,2013-05-21 16:30:00,
2013-05-21 11:40:00,75.9,68.9,29.47,SSW,202,3.0,10.0,79,0.00,,---,0.00,112.00,VWS V14.00,2013-05-21 16:40:00,
2013-05-21 11:50:00,76.1,69.1,29.47,SSW,202,4.0,9.0,79,0.00,,---,0.00,147.00,VWS V14.00,2013-05-21 16:50:00,
2013-05-21 12:00:00,76.3,69.3,29.46,South,180,4.0,8.0,79,0.00,,---,0.00,168.00,VWS V14.00,2013-05-21 17:00:00,
2013-05-21 12:10:00,76.6,69.2,29.46,SE,135,6.0,15.0,78,0.00,,---,0.00,178.00,VWS V14.00,2013-05-21 17:10:00,
2013-05-21 12:20:00,76.7,68.9,29.47,SSW,202,5.0,16.0,77,0.00,,---,0.00,158.00,VWS V14.00,2013-05-21 17:20:00,
2013-05-21 12:30:00,76.9,69.5,29.47,SSE,158,4.0,13.0,78,0.00,,---,0.00,124.00,VWS V14.00,2013-05-21 17:30:00,
2013-05-21 12:40:00,77.2,69.4,29.47,SW,225,6.0,18.0,77,0.00,,---,0.00,170.00,VWS V14.00,2013-05-21 17:40:00,
2013-05-21 12:50:00,77.3,69.5,29.46,South,180,6.0,14.0,77,0.00,,---,0.00,155.00,VWS V14.00,2013-05-21 17:50:00,
2013-05-21 13:00:00,77.5,69.7,29.46,SSE,158,6.0,15.0,77,0.00,,---,0.00,207.00,VWS V14.00,2013-05-21 18:00:00,
2013-05-21 13:10:00,77.7,69.5,29.45,SW,225,5.0,12.0,76,0.00,,---,0.00,210.00,VWS V14.00,2013-05-21 18:10:00,
2013-05-21 13:20:00,77.9,69.7,29.45,South,180,5.0,13.0,76,0.00,,---,0.00,197.00,VWS V14.00,2013-05-21 18:20:00,
2013-05-21 13:38:00,77.9,69.7,29.45,South,180,5.0,13.0,76,0.00,,---,0.00,197.00,VWS V14.00,2013-05-21 18:38:00,
2013-05-21 13:40:00,77.9,69.7,29.45,SSW,200,5.0,14.0,76,0.00,,SKC,0.00,195.00,VWS V14.01,2013-05-21 18:40:00,
2013-05-21 13:43:00,77.8,69.6,29.45,South,171,2.0,11.0,76,0.00,,---,0.00,237.00,VWS V14.00,2013-05-21 18:43:00,
2013-05-21 13:48:00,77.9,69.7,29.44,SSE,153,2.0,11.0,76,0.00,,---,0.00,274.00,VWS V14.00,2013-05-21 18:48:00,
2013-05-21 13:50:00,78.1,69.9,29.44,WSW,242,3.0,11.0,76,0.00,,SKC,0.00,320.00,VWS V14.01,2013-05-21 18:50:00,
2013-05-21 13:53:00,78.2,70.0,29.44,SW,226,4.0,5.0,76,0.00,,---,0.00,323.00,VWS V14.00,2013-05-21 18:53:00,
2013-05-21 13:58:00,78.4,70.2,29.44,WSW,247,4.0,10.0,76,0.00,,---,0.00,190.00,VWS V14.00,2013-05-21 18:58:00,
2013-05-21 14:00:00,78.6,70.0,29.45,SW,232,4.0,10.0,75,0.00,,SKC,0.00,118.00,VWS V14.01,2013-05-21 19:00:00,
2013-05-21 14:03:00,78.6,70.0,29.45,SSE,165,0.0,7.0,75,0.00,,---,0.00,111.00,VWS V14.00,2013-05-21 19:03:00,
2013-05-21 14:08:00,78.5,69.9,29.45,WSW,250,8.0,13.0,75,0.00,,---,0.00,148.00,VWS V14.00,2013-05-21 19:08:00,
2013-05-21 14:10:00,78.5,69.9,29.45,WSW,250,6.0,13.0,75,0.00,,SKC,0.00,223.00,VWS V14.01,2013-05-21 19:10:00,
2013-05-21 14:13:00,78.5,69.9,29.45,West,260,6.0,10.0,75,0.00,,---,0.00,218.00,VWS V14.00,2013-05-21 19:13:00,
2013-05-21 14:18:00,78.5,69.9,29.44,SW,222,3.0,13.0,75,0.00,,---,0.00,209.00,VWS V14.00,2013-05-21 19:18:00,
2013-05-21 14:20:00,78.7,70.1,29.44,SW,222,6.0,13.0,75,0.00,,SKC,0.00,199.00,VWS V14.01,2013-05-21 19:20:00,
2013-05-21 14:23:00,78.7,70.5,29.44,SW,223,10.0,11.0,76,0.00,,---,0.00,200.00,VWS V14.00,2013-05-21 19:23:00,
2013-05-21 14:28:00,78.9,70.3,29.44,South,174,5.0,14.0,75,0.00,,---,0.00,213.00,VWS V14.00,2013-05-21 19:28:00,
2013-05-21 14:30:00,78.9,69.9,29.44,SSW,204,2.0,14.0,74,0.00,,SKC,0.00,148.00,VWS V14.01,2013-05-21 19:30:00,
2013-05-21 14:33:00,78.9,69.9,29.44,SSW,205,0.0,5.0,74,0.00,,---,0.00,144.00,VWS V14.00,2013-05-21 19:33:00,
2013-05-21 14:37:00,78.9,69.9,29.45,South,173,4.0,12.0,74,0.00,,---,0.00,76.00,VWS V14.00,2013-05-21 19:37:00,
2013-05-21 14:40:00,78.8,69.8,29.45,WSW,246,7.0,12.0,74,0.00,,SKC,0.00,121.00,VWS V14.01,2013-05-21 19:40:00,
2013-05-21 14:42:00,78.7,69.7,29.45,WSW,246,7.0,11.0,74,0.00,,---,0.00,134.00,VWS V14.00,2013-05-21 19:42:00,
2013-05-21 14:47:00,78.6,70.0,29.44,West,279,7.0,12.0,75,0.00,,---,0.00,155.00,VWS V14.00,2013-05-21 19:47:00,
2013-05-21 14:50:00,78.5,69.9,29.45,WSW,244,6.0,12.0,75,0.00,,SKC,0.00,132.00,VWS V14.01,2013-05-21 19:50:00,
2013-05-21 14:52:00,78.5,69.9,29.45,SW,232,6.0,11.0,75,0.00,,---,0.00,113.00,VWS V14.00,2013-05-21 19:52:00,
2013-05-21 14:57:00,78.4,69.8,29.45,WSW,247,6.0,15.0,75,0.00,,---,0.00,153.00,VWS V14.00,2013-05-21 19:57:00,
2013-05-21 15:00:00,78.4,69.8,29.44,South,186,4.0,15.0,75,0.00,,SKC,0.00,338.00,VWS V14.01,2013-05-21 20:00:00,
2013-05-21 15:02:00,78.5,69.9,29.45,West,262,6.0,7.0,75,0.00,,---,0.00,355.00,VWS V14.00,2013-05-21 20:02:00,
2013-05-21 15:07:00,78.8,70.6,29.44,SW,225,6.0,15.0,76,0.00,,---,0.00,561.00,VWS V14.00,2013-05-21 20:07:00,
2013-05-21 15:10:00,79.5,70.9,29.44,SW,229,6.0,15.0,75,0.00,,SKC,0.00,911.00,VWS V14.01,2013-05-21 20:10:00,
2013-05-21 15:12:00,79.7,71.1,29.44,SSW,201,5.0,8.0,75,0.00,,---,0.00,911.00,VWS V14.00,2013-05-21 20:12:00,
2013-05-21 15:17:00,80.8,71.3,29.44,WSW,258,12.0,15.0,73,0.00,,---,0.00,858.00,VWS V14.00,2013-05-21 20:17:00,
2013-05-21 15:20:00,81.1,70.8,29.44,WSW,239,8.0,17.0,71,0.00,,SKC,0.00,359.00,VWS V14.01,2013-05-21 20:20:00,
2013-05-21 15:22:00,81.1,70.8,29.43,SW,233,7.0,8.0,71,0.00,,---,0.00,364.00,VWS V14.00,2013-05-21 20:22:00,
2013-05-21 15:27:00,81.2,70.9,29.43,WSW,246,5.0,11.0,71,0.00,,---,0.00,478.00,VWS V14.00,2013-05-21 20:27:00,
2013-05-21 15:30:00,81.3,71.0,29.43,South,188,5.0,11.0,71,0.00,,SKC,0.00,383.00,VWS V14.01,2013-05-21 20:30:00,
2013-05-21 15:32:00,81.3,71.0,29.43,South,186,4.0,8.0,71,0.00,,---,0.00,397.00,VWS V14.00,2013-05-21 20:32:00,
2013-05-21 15:37:00,81.6,71.3,29.43,West,278,9.0,13.0,71,0.00,,---,0.00,925.00,VWS V14.00,2013-05-21 20:37:00,
2013-05-21 15:40:00,81.8,71.1,29.43,West,264,6.0,13.0,70,0.00,,SKC,0.00,388.00,VWS V14.01,2013-05-21 20:40:00,
2013-05-21 15:42:00,81.9,71.2,29.43,SW,236,12.0,12.0,70,0.00,,---,0.00,949.00,VWS V14.00,2013-05-21 20:42:00,
2013-05-21 15:47:00,82.3,71.5,29.43,WSW,238,6.0,13.0,70,0.00,,---,0.00,889.00,VWS V14.00,2013-05-21 20:47:00,
2013-05-21 15:50:00,82.8,71.2,29.42,SW,233,4.0,13.0,68,0.00,,SKC,0.00,889.00,VWS V14.01,2013-05-21 20:50:00,
2013-05-21 15:52:00,82.9,71.3,29.42,SW,233,6.0,7.0,68,0.00,,---,0.00,889.00,VWS V14.00,2013-05-21 20:52:00,
2013-05-21 15:57:00,83.2,71.1,29.42,WSW,239,5.0,15.0,67,0.00,,---,0.00,812.00,VWS V14.00,2013-05-21 20:57:00,
2013-05-21 16:00:00,83.4,71.3,29.41,WSW,239,4.0,15.0,67,0.00,,SKC,0.00,838.00,VWS V14.01,2013-05-21 21:00:00,
2013-05-21 16:02:00,83.5,71.4,29.41,WSW,240,5.0,8.0,67,0.00,,---,0.00,812.00,VWS V14.00,2013-05-21 21:02:00,
2013-05-21 16:07:00,83.8,71.2,29.41,West,272,9.0,14.0,66,0.00,,---,0.00,835.00,VWS V14.00,2013-05-21 21:07:00,
2013-05-21 16:10:00,83.9,71.3,29.41,West,266,4.0,14.0,66,0.00,,SKC,0.00,705.00,VWS V14.01,2013-05-21 21:10:00,
2013-05-21 16:12:00,84.0,71.0,29.41,SW,229,5.0,7.0,65,0.00,,---,0.00,705.00,VWS V14.00,2013-05-21 21:12:00,
2013-05-21 16:17:00,84.3,71.3,29.40,SW,225,10.0,11.0,65,0.00,,---,0.00,761.00,VWS V14.00,2013-05-21 21:17:00,
2013-05-21 16:20:00,84.5,71.0,29.40,SSE,150,10.0,11.0,64,0.00,,SKC,0.00,740.00,VWS V14.01,2013-05-21 21:20:00,
2013-05-21 16:22:00,84.6,71.1,29.40,SSE,150,5.0,12.0,64,0.00,,---,0.00,738.00,VWS V14.00,2013-05-21 21:22:00,
2013-05-21 16:27:00,84.7,70.7,29.40,SSW,207,5.0,12.0,63,0.00,,---,0.00,715.00,VWS V14.00,2013-05-21 21:27:00,
2013-05-21 16:30:00,84.9,70.4,29.40,SW,232,0.0,13.0,62,0.00,,SKC,0.00,705.00,VWS V14.01,2013-05-21 21:30:00,
2013-05-21 16:32:00,84.9,70.4,29.40,SSW,204,5.0,7.0,62,0.00,,---,0.00,703.00,VWS V14.00,2013-05-21 21:32:00,
2013-05-21 16:37:00,85.2,70.2,29.39,SSW,203,3.0,10.0,61,0.00,,---,0.00,686.00,VWS V14.00,2013-05-21 21:37:00,
2013-05-21 16:40:00,85.4,70.9,29.39,South,177,5.0,10.0,62,0.00,,SKC,0.00,673.00,VWS V14.01,2013-05-21 21:40:00,
2013-05-21 16:42:00,85.4,70.9,29.39,South,177,5.0,6.0,62,0.00,,---,0.00,656.00,VWS V14.00,2013-05-21 21:42:00,
2013-05-21 16:47:00,85.5,70.0,29.39,SSE,160,5.0,12.0,60,0.00,,---,0.00,666.00,VWS V14.00,2013-05-21 21:47:00,
2013-05-21 16:50:00,85.4,70.9,29.39,South,173,5.0,12.0,62,0.00,,SKC,0.00,642.00,VWS V14.01,2013-05-21 21:50:00,
2013-05-21 16:52:00,85.4,70.4,29.39,South,173,4.0,6.0,61,0.00,,---,0.00,636.00,VWS V14.00,2013-05-21 21:52:00,
2013-05-21 16:57:00,85.6,70.1,29.39,SSW,198,4.0,10.0,60,0.00,,---,0.00,577.00,VWS V14.00,2013-05-21 21:57:00,
2013-05-21 17:00:00,85.8,70.3,29.39,SSW,198,0.0,10.0,60,0.00,,SKC,0.00,631.00,VWS V14.01,2013-05-21 22:00:00,
2013-05-21 17:02:00,85.8,70.3,29.39,SSW,198,3.0,5.0,60,0.00,,---,0.00,636.00,VWS V14.00,2013-05-21 22:02:00,
2013-05-21 17:07:00,86.2,71.2,29.39,SSW,202,6.0,9.0,61,0.00,,---,0.00,622.00,VWS V14.00,2013-05-21 22:07:00,
2013-05-21 17:10:00,86.2,69.7,29.39,SW,225,4.0,10.0,58,0.00,,SKC,0.00,564.00,VWS V14.01,2013-05-21 22:10:00,
2013-05-21 17:12:00,86.2,70.2,29.39,SW,225,5.0,6.0,59,0.00,,---,0.00,603.00,VWS V14.00,2013-05-21 22:12:00,
2013-05-21 17:17:00,86.1,70.1,29.39,SW,217,1.0,9.0,59,0.00,,---,0.00,575.00,VWS V14.00,2013-05-21 22:17:00,
2013-05-21 17:20:00,86.2,70.7,29.38,SW,217,5.0,9.0,60,0.00,,SKC,0.00,492.00,VWS V14.01,2013-05-21 22:20:00,
2013-05-21 17:22:00,86.2,69.7,29.38,SSW,213,5.0,8.0,58,0.00,,---,0.00,492.00,VWS V14.00,2013-05-21 22:22:00,
2013-05-21 17:27:00,86.0,69.5,29.38,SSW,213,6.0,8.0,58,0.00,,---,0.00,343.00,VWS V14.00,2013-05-21 22:27:00,
2013-05-21 17:30:00,85.9,69.9,29.38,SSW,213,2.0,8.0,59,0.00,,SKC,0.00,612.00,VWS V14.01,2013-05-21 22:30:00,
2013-05-21 17:32:00,85.9,69.9,29.38,SSW,213,4.0,4.0,59,0.00,,---,0.00,323.00,VWS V14.00,2013-05-21 22:32:00,
2013-05-21 17:37:00,85.8,69.8,29.38,SSW,209,3.0,8.0,59,0.00,,---,0.00,308.00,VWS V14.00,2013-05-21 22:37:00,
2013-05-21 17:40:00,85.8,70.3,29.38,SSW,209,2.0,8.0,60,0.00,,SKC,0.00,390.00,VWS V14.01,2013-05-21 22:40:00,
2013-05-21 17:42:00,85.8,70.3,29.38,SSW,209,2.0,3.0,60,0.00,,---,0.00,390.00,VWS V14.00,2013-05-21 22:42:00,
2013-05-21 17:47:00,85.9,70.9,29.38,SSW,209,3.0,6.0,61,0.00,,---,0.00,475.00,VWS V14.00,2013-05-21 22:47:00,
2013-05-21 17:50:00,86.0,70.5,29.38,SSW,209,6.0,8.0,60,0.00,,SKC,0.00,272.00,VWS V14.01,2013-05-21 22:50:00,
2013-05-21 17:52:00,86.0,70.0,29.38,SSW,209,5.0,5.0,59,0.00,,---,0.00,251.00,VWS V14.00,2013-05-21 22:52:00,
2013-05-21 17:57:00,85.7,69.7,29.38,SSW,209,2.0,8.0,59,0.00,,---,0.00,151.00,VWS V14.00,2013-05-21 22:57:00,
2013-05-21 18:00:00,85.4,69.9,29.39,SSW,210,4.0,8.0,60,0.00,,SKC,0.00,88.00,VWS V14.01,2013-05-21 23:00:00,
2013-05-21 18:02:00,85.3,69.8,29.39,SW,236,6.0,10.0,60,0.00,,---,0.00,95.00,VWS V14.00,2013-05-21 23:02:00,
2013-05-21 18:07:00,84.5,67.1,29.40,SW,236,4.0,10.0,56,0.00,,---,0.00,494.00,VWS V14.00,2013-05-21 23:07:00,
2013-05-21 18:10:00,84.0,66.1,29.40,WSW,243,2.0,10.0,55,0.00,,SKC,0.00,192.00,VWS V14.01,2013-05-21 23:10:00,
2013-05-21 18:12:00,83.9,66.5,29.40,WSW,244,7.0,8.0,56,0.00,,---,0.00,207.00,VWS V14.00,2013-05-21 23:12:00,
2013-05-21 18:17:00,83.1,65.8,29.40,WSW,258,7.0,11.0,56,0.00,,---,0.00,432.00,VWS V14.00,2013-05-21 23:17:00,
2013-05-21 18:20:00,82.5,65.2,29.40,WSW,258,4.0,11.0,56,0.00,,SKC,0.00,267.00,VWS V14.01,2013-05-21 23:20:00,
2013-05-21 18:22:00,82.4,65.1,29.40,WSW,258,4.0,7.0,56,0.00,,---,0.00,202.00,VWS V14.00,2013-05-21 23:22:00,
2013-05-21 18:27:00,81.7,65.0,29.41,WSW,258,3.0,10.0,57,0.00,,---,0.00,209.00,VWS V14.00,2013-05-21 23:27:00,
2013-05-21 18:30:00,81.3,65.1,29.41,West,261,1.0,11.0,58,0.00,,SKC,0.00,288.00,VWS V14.01,2013-05-21 23:30:00,
2013-05-21 18:32:00,81.2,65.0,29.41,West,261,1.0,6.0,58,0.00,,---,0.00,301.00,VWS V14.00,2013-05-21 23:32:00,
2013-05-21 18:37:00,80.7,65.1,29.41,West,261,7.0,12.0,59,0.00,,---,0.00,243.00,VWS V14.00,2013-05-21 23:37:00,
2013-05-21 18:40:00,80.5,65.3,29.41,West,261,3.0,12.0,60,0.00,,SKC,0.00,176.00,VWS V14.01,2013-05-21 23:40:00,
2013-05-21 18:42:00,80.5,64.9,29.41,West,261,6.0,10.0,59,0.00,,---,0.00,193.00,VWS V14.00,2013-05-21 23:42:00,
2013-05-21 18:47:00,80.2,64.6,29.42,West,261,4.0,10.0,59,0.00,,---,0.00,158.00,VWS V14.00,2013-05-21 23:47:00,
2013-05-21 18:50:00,79.9,64.8,29.42,West,261,2.0,10.0,60,0.00,,SKC,0.00,123.00,VWS V14.01,2013-05-21 23:50:00,
2013-05-21 18:52:00,79.9,64.8,29.42,West,261,0.0,1.0,60,0.00,,---,0.00,128.00,VWS V14.00,2013-05-21 23:52:00,
2013-05-21 18:57:00,79.6,64.5,29.43,West,261,3.0,8.0,60,0.00,,---,0.00,181.00,VWS V14.00,2013-05-21 23:57:00,
2013-05-21 19:00:00,79.2,63.7,29.43,West,261,3.0,8.0,59,0.00,,SKC,0.00,125.00,VWS V14.01,2013-05-22 00:00:00,
2013-05-21 19:02:00,79.2,63.7,29.43,West,261,3.0,4.0,59,0.00,,---,0.00,134.00,VWS V14.00,2013-05-22 00:02:00,
2013-05-21 19:07:00,78.7,63.2,29.43,West,261,4.0,7.0,59,0.00,,---,0.00,160.00,VWS V14.00,2013-05-22 00:07:00,
2013-05-21 19:10:00,78.3,62.8,29.44,West,261,5.0,8.0,59,0.00,,SKC,0.00,151.00,VWS V14.01,2013-05-22 00:10:00,
2013-05-21 19:12:00,78.3,62.8,29.44,West,261,4.0,6.0,59,0.00,,---,0.00,151.00,VWS V14.00,2013-05-22 00:12:00,
2013-05-21 19:17:00,77.8,62.8,29.44,West,261,2.0,6.0,60,0.00,,---,0.00,95.00,VWS V14.00,2013-05-22 00:17:00,
2013-05-21 19:20:00,77.3,62.3,29.45,West,261,3.0,7.0,60,0.00,,SKC,0.00,86.00,VWS V14.01,2013-05-22 00:20:00,
2013-05-21 19:22:00,77.2,62.2,29.45,West,261,3.0,3.0,60,0.00,,---,0.00,84.00,VWS V14.00,2013-05-22 00:22:00,
2013-05-21 19:27:00,76.8,62.3,29.45,West,261,4.0,6.0,61,0.00,,---,0.00,72.00,VWS V14.00,2013-05-22 00:27:00,
2013-05-21 19:30:00,76.4,62.0,29.45,West,261,2.0,6.0,61,0.00,,SKC,0.00,65.00,VWS V14.01,2013-05-22 00:30:00,
2013-05-21 19:32:00,76.3,61.9,29.46,West,261,3.0,4.0,61,0.00,,---,0.00,63.00,VWS V14.00,2013-05-22 00:32:00,
2013-05-21 19:37:00,76.0,62.0,29.47,West,261,4.0,7.0,62,0.00,,---,0.00,58.00,VWS V14.00,2013-05-22 00:37:00,
2013-05-21 19:40:00,75.7,61.3,29.47,West,261,2.0,8.0,61,0.00,,SKC,0.00,49.00,VWS V14.01,2013-05-22 00:40:00,
2013-05-21 19:42:00,75.6,61.2,29.47,West,261,0.0,3.0,61,0.00,,---,0.00,47.00,VWS V14.00,2013-05-22 00:42:00,
2013-05-21 19:47:00,75.3,60.9,29.47,West,261,0.0,6.0,61,0.00,,---,0.00,37.00,VWS V14.00,2013-05-22 00:47:00,
2013-05-21 19:50:00,75.0,60.7,29.48,West,261,3.0,6.0,61,0.00,,SKC,0.00,28.00,VWS V14.01,2013-05-22 00:50:00,
2013-05-21 19:52:00,75.0,60.7,29.48,West,261,3.0,4.0,61,0.00,,---,0.00,26.00,VWS V14.00,2013-05-22 00:52:00,
2013-05-21 19:57:00,74.6,60.3,29.49,West,261,2.0,5.0,61,0.00,,---,0.00,21.00,VWS V14.00,2013-05-22 00:57:00,
2013-05-21 20:00:00,74.4,60.1,29.50,West,261,0.0,5.0,61,0.00,,SKC,0.00,19.00,VWS V14.01,2013-05-22 01:00:00,
2013-05-21 20:03:00,74.3,60.0,29.49,West,261,3.0,4.0,61,0.00,,---,0.00,18.00,VWS V14.00,2013-05-22 01:03:00,
2013-05-21 20:08:00,74.0,59.7,29.50,West,261,1.0,4.0,61,0.00,,---,0.00,12.00,VWS V14.00,2013-05-22 01:08:00,
2013-05-21 20:10:00,74.0,59.7,29.50,West,261,0.0,4.0,61,0.00,,SKC,0.00,9.00,VWS V14.01,2013-05-22 01:10:00,
2013-05-21 20:13:00,73.9,59.6,29.50,West,261,3.0,4.0,61,0.00,,---,0.00,9.00,VWS V14.00,2013-05-22 01:13:00,
2013-05-21 20:18:00,73.7,59.4,29.51,West,261,0.0,5.0,61,0.00,,---,0.00,7.00,VWS V14.00,2013-05-22 01:18:00,
2013-05-21 20:20:00,73.7,59.4,29.51,West,261,0.0,5.0,61,0.00,,SKC,0.00,5.00,VWS V14.01,2013-05-22 01:20:00,
2013-05-21 20:23:00,73.6,59.3,29.51,West,261,2.0,4.0,61,0.00,,---,0.00,5.00,VWS V14.00,2013-05-22 01:23:00,
2013-05-21 20:28:00,73.5,59.2,29.52,West,261,0.0,4.0,61,0.00,,---,0.00,0.00,VWS V14.00,2013-05-22 01:28:00,
2013-05-21 20:30:00,73.5,59.2,29.52,West,261,2.0,4.0,61,0.00,,SKC,0.00,0.00,VWS V14.01,2013-05-22 01:30:00,
2013-05-21 20:33:00,73.4,59.2,29.52,West,261,3.0,4.0,61,0.00,,---,0.00,0.00,VWS V14.00,2013-05-22 01:33:00,
2013-05-21 20:38:00,73.3,58.6,29.53,West,261,2.0,5.0,60,0.00,,---,0.00,0.00,VWS V14.00,2013-05-22 01:38:00,
2013-05-21 20:40:00,73.3,58.6,29.53,West,261,0.0,5.0,60,0.00,,SKC,0.00,0.00,VWS V14.01,2013-05-22 01:40:00,
2013-05-21 20:43:00,73.3,59.0,29.52,West,261,0.0,1.0,61,0.00,,---,0.00,0.00,VWS V14.00,2013-05-22 01:43:00,
2013-05-21 20:48:00,73.2,59.0,29.53,West,261,0.0,5.0,61,0.00,,---,0.00,0.00,VWS V14.00,2013-05-22 01:48:00,
2013-05-21 20:50:00,73.1,58.9,29.53,West,261,1.0,5.0,61,0.00,,SKC,0.00,0.00,VWS V14.01,2013-05-22 01:50:00,
2013-05-21 20:53:00,73.0,58.8,29.53,West,261,0.0,4.0,61,0.00,,---,0.00,0.00,VWS V14.00,2013-05-22 01:53:00,
2013-05-21 20:58:00,72.8,58.6,29.53,West,261,1.0,4.0,61,0.00,,---,0.00,0.00,VWS V14.00,2013-05-22 01:58:00,
2013-05-21 21:00:00,72.8,58.6,29.53,West,261,0.0,4.0,61,0.00,,SKC,0.00,0.00,VWS V14.01,2013-05-22 02:00:00,
2013-05-21 21:03:00,72.7,58.9,29.53,West,261,0.0,0.0,62,0.00,,---,0.00,0.00,VWS V14.00,2013-05-22 02:03:00,
2013-05-21 21:08:00,72.6,58.4,29.54,West,261,2.0,5.0,61,0.00,,---,0.00,0.00,VWS V14.00,2013-05-22 02:08:00,
2013-05-21 21:10:00,72.5,57.8,29.54,West,261,2.0,5.0,60,0.00,,SKC,0.00,0.00,VWS V14.01,2013-05-22 02:10:00,
2013-05-21 21:13:00,72.4,57.8,29.54,West,261,2.0,4.0,60,0.00,,---,0.00,0.00,VWS V14.00,2013-05-22 02:13:00,
2013-05-21 21:18:00,72.3,57.2,29.54,West,261,0.0,5.0,59,0.00,,---,0.00,0.00,VWS V14.00,2013-05-22 02:18:00,
2013-05-21 21:20:00,72.3,57.2,29.55,West,261,0.0,5.0,59,0.00,,SKC,0.00,0.00,VWS V14.01,2013-05-22 02:20:00,
2013-05-21 21:23:00,72.2,57.1,29.55,West,261,0.0,2.0,59,0.00,,---,0.00,0.00,VWS V14.00,2013-05-22 02:23:00,
2013-05-21 21:28:00,72.2,57.1,29.55,West,261,0.0,2.0,59,0.00,,---,0.00,0.00,VWS V14.00,2013-05-22 02:28:00,
2013-05-21 21:30:00,72.2,57.1,29.55,West,261,0.0,2.0,59,0.00,,SKC,0.00,0.00,VWS V14.01,2013-05-22 02:30:00,
2013-05-21 21:33:00,72.2,57.1,29.55,West,261,0.0,0.0,59,0.00,,---,0.00,0.00,VWS V14.00,2013-05-22 02:33:00,
2013-05-21 21:38:00,72.2,57.1,29.55,West,261,1.0,2.0,59,0.00,,---,0.00,0.00,VWS V14.00,2013-05-22 02:38:00,
2013-05-21 21:40:00,72.2,57.6,29.56,West,261,0.0,2.0,60,0.00,,SKC,0.00,0.00,VWS V14.01,2013-05-22 02:40:00,
2013-05-21 21:43:00,72.2,57.6,29.55,West,261,2.0,3.0,60,0.00,,---,0.00,0.00,VWS V14.00,2013-05-22 02:43:00,
2013-05-21 21:48:00,72.2,57.6,29.56,West,261,0.0,3.0,60,0.00,,---,0.00,0.00,VWS V14.00,2013-05-22 02:48:00,
2013-05-21 21:50:00,72.2,57.6,29.56,West,261,0.0,3.0,60,0.00,,SKC,0.00,0.00,VWS V14.01,2013-05-22 02:50:00,
2013-05-21 21:53:00,72.2,57.6,29.56,West,261,1.0,3.0,60,0.00,,---,0.00,0.00,VWS V14.00,2013-05-22 02:53:00,
2013-05-21 21:58:00,72.1,57.5,29.56,West,261,0.0,3.0,60,0.00,,---,0.00,0.00,VWS V14.00,2013-05-22 02:58:00,
2013-05-21 22:00:00,72.1,57.9,29.56,West,261,0.0,3.0,61,0.00,,SKC,0.00,0.00,VWS V14.01,2013-05-22 03:00:00,
2013-05-21 22:03:00,72.1,57.9,29.56,West,261,0.0,0.0,61,0.00,,---,0.00,0.00,VWS V14.00,2013-05-22 03:03:00,
2013-05-21 22:08:00,72.0,57.8,29.57,West,261,0.0,0.0,61,0.00,,---,0.00,0.00,VWS V14.00,2013-05-22 03:08:00,
2013-05-21 22:10:00,72.0,57.8,29.57,West,261,0.0,0.0,61,0.00,,SKC,0.00,0.00,VWS V14.01,2013-05-22 03:10:00,
2013-05-21 22:13:00,72.0,57.8,29.57,West,261,0.0,0.0,61,0.00,,---,0.00,0.00,VWS V14.00,2013-05-22 03:13:00,
2013-05-21 22:18:00,71.9,57.7,29.57,West,261,0.0,2.0,61,0.00,,---,0.00,0.00,VWS V14.00,2013-05-22 03:18:00,
2013-05-21 22:20:00,71.8,57.6,29.57,West,261,1.0,2.0,61,0.00,,SKC,0.00,0.00,VWS V14.01,2013-05-22 03:20:00,
2013-05-21 22:23:00,71.8,57.6,29.57,West,261,2.0,3.0,61,0.00,,---,0.00,0.00,VWS V14.00,2013-05-22 03:23:00,
2013-05-21 22:28:00,71.6,57.5,29.57,West,261,1.0,3.0,61,0.00,,---,0.00,0.00,VWS V14.00,2013-05-22 03:28:00,
2013-05-21 22:30:00,71.5,57.4,29.58,West,261,3.0,3.0,61,0.00,,SKC,0.00,0.00,VWS V14.01,2013-05-22 03:30:00,
2013-05-21 22:33:00,71.5,57.4,29.57,West,261,0.0,3.0,61,0.00,,---,0.00,0.00,VWS V14.00,2013-05-22 03:33:00,
2013-05-21 22:38:00,71.3,57.6,29.58,West,261,0.0,3.0,62,0.00,,---,0.00,0.00,VWS V14.00,2013-05-22 03:38:00,
2013-05-21 22:40:00,71.2,57.5,29.58,West,261,0.0,3.0,62,0.00,,SKC,0.00,0.00,VWS V14.01,2013-05-22 03:40:00,
2013-05-21 22:43:00,71.1,57.4,29.58,West,261,1.0,1.0,62,0.00,,---,0.00,0.00,VWS V14.00,2013-05-22 03:43:00,
2013-05-21 22:48:00,70.8,57.2,29.58,West,261,0.0,1.0,62,0.00,,---,0.00,0.00,VWS V14.00,2013-05-22 03:48:00,
2013-05-21 22:50:00,70.6,57.0,29.58,West,261,0.0,1.0,62,0.00,,SKC,0.00,0.00,VWS V14.01,2013-05-22 03:50:00,
2013-05-21 22:53:00,70.6,57.0,29.59,West,261,1.0,3.0,62,0.00,,---,0.00,0.00,VWS V14.00,2013-05-22 03:53:00,
2013-05-21 22:58:00,70.2,57.0,29.59,West,261,1.0,4.0,63,0.00,,---,0.00,0.00,VWS V14.00,2013-05-22 03:58:00,
2013-05-21 23:00:00,70.0,56.8,29.59,West,261,0.0,4.0,63,0.00,,SKC,0.00,0.00,VWS V14.01,2013-05-22 04:00:00,
2013-05-21 23:01:00,70.0,56.8,29.59,West,261,0.0,4.0,63,0.00,,---,0.00,0.00,VWS V14.00,2013-05-22 04:01:00,
2013-05-21 23:06:00,69.7,57.0,29.59,West,261,0.0,2.0,64,0.00,,---,0.00,0.00,VWS V14.00,2013-05-22 04:06:00,
2013-05-21 23:10:00,69.4,56.7,29.59,West,261,1.0,2.0,64,0.00,,SKC,0.00,0.00,VWS V14.01,2013-05-22 04:10:00,
2013-05-21 23:11:00,69.4,56.7,29.59,West,261,0.0,2.0,64,0.00,,---,0.00,0.00,VWS V14.00,2013-05-22 04:11:00,
2013-05-21 23:16:00,69.1,56.8,29.60,West,261,0.0,1.0,65,0.00,,---,0.00,0.00,VWS V14.00,2013-05-22 04:16:00,
2013-05-21 23:20:00,68.8,56.6,29.60,West,261,0.0,1.0,65,0.00,,SKC,0.00,0.00,VWS V14.01,2013-05-22 04:20:00,
2013-05-21 23:21:00,68.9,57.1,29.60,West,261,0.0,1.0,66,0.00,,---,0.00,0.00,VWS V14.00,2013-05-22 04:21:00,
2013-05-21 23:26:00,68.6,56.8,29.60,West,261,0.0,2.0,66,0.00,,---,0.00,0.00,VWS V14.00,2013-05-22 04:26:00,
2013-05-21 23:30:00,68.2,56.4,29.60,West,261,0.0,2.0,66,0.00,,SKC,0.00,0.00,VWS V14.01,2013-05-22 04:30:00,
2013-05-21 23:31:00,68.2,56.4,29.60,West,261,0.0,2.0,66,0.00,,---,0.00,0.00,VWS V14.00,2013-05-22 04:31:00,
2013-05-21 23:36:00,67.9,56.1,29.60,West,261,4.0,4.0,66,0.00,,---,0.00,0.00,VWS V14.00,2013-05-22 04:36:00,
2013-05-21 23:40:00,67.4,56.1,29.61,West,261,3.0,6.0,67,0.00,,SKC,0.00,0.00,VWS V14.01,2013-05-22 04:40:00,
2013-05-21 23:41:00,67.5,56.2,29.61,West,261,4.0,6.0,67,0.00,,---,0.00,0.00,VWS V14.00,2013-05-22 04:41:00,
2013-05-21 23:46:00,67.1,56.2,29.61,West,261,1.0,5.0,68,0.00,,---,0.00,0.00,VWS V14.00,2013-05-22 04:46:00,
2013-05-21 23:50:00,66.8,55.9,29.61,West,261,3.0,5.0,68,0.00,,SKC,0.00,0.00,VWS V14.01,2013-05-22 04:50:00,
2013-05-21 23:51:00,66.9,56.0,29.61,West,261,4.0,5.0,68,0.00,,---,0.00,0.00,VWS V14.00,2013-05-22 04:51:00,
2013-05-21 23:56:00,66.6,56.1,29.61,West,261,4.0,4.0,69,0.00,,---,0.00,0.00,VWS V14.00,2013-05-22 04:56:00,